Flag for Germany Weather past 2 weeks in Pirmasens, Rhineland-Palatinate, Germany

Now
45 °F

Overcast.


Feels Like: 42 °F
Forecast: 27 / 57 °F
Wind: 5 mph from North

Location: Ramstein

Current Time: Apr 28, 2015 at 4:56:35 AM

Latest Report: Apr 28, 2015 at 3:58 AM


Visibility: N/A

Pressure: 29.82 "Hg

Humidity: 84%

Dew point: 40 °F

Location of PirmasensLocation

Historic Weather in Pirmasens — Graph

°F

Pirmasens temperature yesterday

Maximum temperature yesterday: 57 °F (at 12:58 AM)
Minimum temperature yesterday: 35 °F (at 12:55 PM)
Average temperature yesterday: 51 °F

Past Weeks' High & Low Weather Summary

 TemperatureHumidityPressure
High79 °F (Apr 15, 4:58 PM)100% (Apr 13, 3:58 AM)30.47 "Hg (Apr 13, 3:58 AM)
Low27 °F (Apr 19, 5:58 AM)17% (Apr 15, 4:58 PM)29.56 "Hg (Apr 27, 5:58 AM)
Average52 °F67%30.07 "Hg
* Reported Apr 13 3:58 AM — Apr 28 3:58 AM, Pirmasens, Weather by CustomWeather, © 2015

Note: Actual official high and low records may vary slightly from our data, if they occured in-between our weather recording intervals... More about our weather records

Advertising

Pirmasens weather history for previous 24 hours

 ConditionsComfort  
Time TempWeatherWind HumidityBarometerVisibility
3:58 AM
Tue, Apr 28
45 °FOvercast.5 mph87%29.82 "HgN/A
2:58 AM45 °FMostly cloudy.5 mph89%29.78 "HgN/A
1:58 AM45 °FOvercast.6 mph92%29.77 "HgN/A
12:58 AM45 °FOvercast.6 mph100%29.75 "HgN/A
11:58 PM
Mon, Apr 27
45 °FOvercast.6 mph96%29.75 "HgN/A
11:01 PM46 °FOvercast.7 mph93%29.72 "HgN/A
9:59 PM46 °FOvercast.6 mph100%29.71 "HgN/A
9:01 PM46 °FLight rain. Overcast.8 mph100%29.68 "HgN/A
8:58 PM47 °FLight rain. Low clouds.9 mph99%29.69 "HgN/A
7:58 PM47 °FOvercast.6 mph99%29.67 "HgN/A
7:00 PM48 °FLight rain. Low clouds.6 mph100%29.65 "HgN/A
6:58 PM48 °FLight rain. Low clouds.6 mph99%29.66 "HgN/A
5:58 PM49 °FLight rain. Overcast.7 mph99%29.65 "HgN/A
4:58 PM50 °FLight rain. Low clouds.8 mph100%29.64 "HgN/A
4:04 PM52 °FLight rain. Mostly cloudy.8 mph100%29.62 "HgN/A
3:58 PM52 °FDrizzle. Mostly cloudy.8 mph100%29.63 "HgN/A
2:58 PM53 °FLight rain. Mostly cloudy.8 mph99%29.64 "HgN/A
2:24 PM54 °FLight rain. More clouds than sun.8 mph94%29.62 "HgN/A
1:55 PM54 °FLight rain. Mostly cloudy.8 mph94%29.62 "HgN/A
12:59 PM54 °FRain. Overcast.12 mph100%29.62 "HgN/A
12:55 PM35 °FLight rain. Overcast.12 mph100%29.62 "HgN/A
11:58 AM54 °FLight rain. Mostly cloudy.5 mph100%29.62 "HgN/A
11:02 AM54 °FHeavy rain. Fog.6 mph94%29.61 "Hg4 mi
10:58 AM54 °FLight rain. Fog.9 mph100%29.62 "Hg5 mi
9:58 AM54 °FLight rain. Overcast.5 mph100%29.59 "HgN/A
9:01 AM55 °FLight rain. Mostly cloudy.3 mph100%29.59 "HgN/A
7:58 AM55 °FBroken clouds.5 mph99%29.58 "HgN/A
7:00 AM55 °FLight rain. Passing clouds.5 mph100%29.57 "HgN/A
5:58 AM55 °FPassing clouds.5 mph98%29.56 "HgN/A
4:58 AM56 °FLight rain. Passing clouds.3 mph96%29.57 "HgN/A
Weather by CustomWeather, © 2015

See weather overviewHow to use our weather pages